Tracking 19832 objects as of 24-Aug-2019
HD Live streaming from Space Station
objects crossing your sky now

COSMOS 2251 DEB

Track COSMOS 2251 DEB now!
10-day predictions


NORAD ID: 33821
Int'l Code: 1993-036BN
Perigee: 543.4 km
Apogee: 721.2 km
Inclination: 74.1 °
Period: 97.2 minutes
Semi major axis: 7003 km
RCS: 0.055 m2 (small)
Launch date: June 16, 1993
Source: Commonwealth of Independent States (former USSR) (CIS)
Launch site: PLESETSK MISSILE AND SPACE COMPLEX (PKMTR)

Note: This is SATELLITE DEBRIS
aabbcc
Your satellite tracking list
Your tracking list is empty




NASA's NSSDC Master Catalog

Two Line Element Set (TLE):
1 33821U 93036BN  19235.96410233 +.00000237 +00000-0 +31124-4 0  9993
2 33821 074.0518 075.4180 0126897 011.4556 100.7666 14.81320437406812
Source of the keplerian elements: AFSPC